User: anonymous
Location: Brno
(49.2000°N, 16.6330°E)
Time: 13:15:29
(UTC+02:00)
Language:

Cosmos 1459 Rocket - Orbit

View from above orbital plane
View from above orbital plane
View from above satellite
View from above satellite

Ground track
Ground track

The orbit data is extracted from the following two-line orbital elements,

1 14059U 83042B   14243.07081078  .00000116  00000-0  99556-4 0  3799
2 14059 082.9695 099.7801 0041401 253.6625 215.3998 13.78458263575071
Epoch (UTC): 31 August 2014 01:41:58
Eccentricity: 0.0041401
inclination: 82.9695°
perigee height: 939 km
apogee height: 1000 km
right ascension of ascending node: 99.7801°
argument of perigee: 253.6625°
revolutions per day: 13.78458263
mean anomaly at epoch: 215.3998°
orbit number at epoch: 57507

The dashed part of the orbit path shows where the satellite is in the earth's shadow,  

DLR